Regional Weather Roundup
Issued by NWS

Home | Current Version | Previous Version | Text Only | Print | Product List | Glossary Off
Versions: 1 2 3 4 5 6 7 8 9 10 11 12 13 14 15 16 17 18 19 20 21 22 23 24 25 26 27 28 29 30 31 32 33 34 35 36 37 38 39 40 41 42 43 44 45 46 47 48 49 50

000
ASUS43 KBIS 281002
RWRND

NORTH DAKOTA REGIONAL WEATHER ROUNDUP
NATIONAL WEATHER SERVICE BISMARCK ND
500 AM CDT WED JUN 28 2017

NOTE: "FAIR" INDICATES FEW OR NO CLOUDS BELOW 12,000 FEET WITH NO
SIGNIFICANT WEATHER AND/OR OBSTRUCTIONS TO VISIBILITY.


NDZ001>003-009>011-017-281100-
NORTHWEST NORTH DAKOTA

CITY           SKY/WX    TMP DP  RH WIND       PRES   REMARKS
WILLISTON      CLEAR     60  41  49 N15       29.68R
MINOT          PTCLDY    62  57  83 NW14      29.59R
MINOT AFB      PTCLDY    62  56  82 NW15      29.59R
$$

NDZ018>021-031>035-040>046-281100-
SOUTHWEST NORTH DAKOTA

CITY           SKY/WX    TMP DP  RH WIND       PRES   REMARKS
BISMARCK       CLOUDY    64  60  87 NW10      29.58R
DICKINSON      MOCLDY    56  54  93 NW9       29.68R
GARRISON         N/A     60  56  86 NW15      29.60R
HETTINGER ARPT CLOUDY    63  56  78 NW15      29.71R
$$

NDZ004>008-012>016-024-026-027-054-281100-
NORTHEAST NORTH DAKOTA

CITY           SKY/WX    TMP DP  RH WIND       PRES   REMARKS
GRAND FORKS    CLOUDY    62  60  93 SE12      29.49S
GRND FRKS AFB  CLOUDY    61  59  93 S6        29.50S
DEVILS LAKE    LGT RAIN  62  62 100 E3        29.55F
$$

NDZ022-023-025-028>030-036>039-047>053-281100-
SOUTHEAST NORTH DAKOTA

CITY           SKY/WX    TMP DP  RH WIND       PRES   REMARKS
FARGO          CLOUDY    64  60  87 E18G25    29.47F
JAMESTOWN      CLEAR     57  55  93 NW8       29.46F
$$




USA.gov is the U.S. government's official web portal to all federal, state and local government web resources and services.